VK2RZ Weather Reports


time (UTC)temp
C
wind
direction
speed
KPH
gust
KPH
rain 1hr
cm
rain 24hr
cm
rain mn
cm
humidity
%
barometer
mb
20260504174036 15 247 6.4 14.5 0.00 0.08 0.00 7 1015.9
20260504173036 15 231 4.8 12.9 0.00 0.08 0.00 7 1016.0
20260504172036 16 241 3.2 6.4 0.00 0.08 0.00 7 1016.1
20260504171036 16 259 11.3 11.3 0.00 0.08 0.00 7 1016.3
20260504151035 16 249 6.4 8.0 0.00 0.08 0.00 8 1016.3
20260504141034 17 241 4.8 4.8 0.00 0.08 0.00 8 1016.5
20260504081028 18 0 0.0 0.0 0.00 0.08 0.08 8 1015.6
20260504045026 19 0 0.0 0.0 0.00 0.08 0.08 8 1014.9
20260504044026 18 347 1.6 4.8 0.00 0.08 0.08 8 1015.0
20260504043026 18 0 0.0 0.0 0.00 0.08 0.08 8 1015.2
20260504042026 19 0 0.0 0.0 0.00 0.08 0.08 8 1015.2
20260504041026 19 0 0.0 0.0 0.00 0.08 0.08 8 1015.2
20260504040026 18 0 0.0 0.0 0.00 0.08 0.08 8 1015.3
20260504035026 18 0 0.0 0.0 0.00 0.08 0.08 8 1015.3
20260504034026 18 0 0.0 0.0 0.00 0.08 0.08 8 1015.5
20260504033026 18 0 0.0 0.0 0.00 0.08 0.08 8 1015.6
20260504032026 18 0 0.0 0.0 0.03 0.08 0.08 8 1015.9
20260504031026 18 0 0.0 0.0 0.03 0.08 0.08 8 1015.9
20260504030026 18 0 0.0 1.6 0.05 0.08 0.08 8 1016.2
20260504025026 18 1 1.6 1.6 0.08 0.08 0.08 8 1016.5
20260504024026 18 0 0.0 0.0 0.05 0.05 0.05 8 1016.7
20260504023026 18 0 0.0 0.0 0.05 0.05 0.05 8 1016.8
20260504022026 18 0 0.0 0.0 0.03 0.03 0.03 8 1017.0
20260504021026 18 4 3.2 3.2 0.03 0.03 0.03 8 1017.3
20260504020026 19 0 0.0 0.0 0.00 0.00 0.00 8 1017.5
20260504015026 20 0 0.0 0.0 0.00 0.00 0.00 8 1017.5
20260504014026 20 0 0.0 0.0 0.00 0.00 0.00 7 1017.6
20260504013026 20 0 0.0 0.0 0.00 0.00 0.00 7 1017.6
20260504012025 20 0 0.0 0.0 0.00 0.00 0.00 7 1017.7
20260504011025 20 0 0.0 0.0 0.00 0.00 0.00 7 1017.8
20260504010025 20 0 0.0 1.6 0.00 0.00 0.00 7 1017.8
20260504005025 20 41 1.6 1.6 0.00 0.00 0.00 7 1017.7
20260504004025 20 0 0.0 0.0 0.00 0.00 0.00 7 1017.6
20260504003025 20 41 1.6 3.2 0.00 0.00 0.00 7 1017.6
20260504002025 20 0 0.0 1.6 0.00 0.00 0.00 7 1017.6
20260504001025 20 0 0.0 1.6 0.00 0.00 0.00 7 1017.7
20260504000025 20 57 1.6 1.6 0.00 0.00 0.00 8 1017.8
20260503235025 19 0 0.0 3.2 0.00 0.00 0.00 7 1017.7
20260503234025 19 58 4.8 4.8 0.00 0.00 0.00 8 1017.7
20260503233025 20 125 1.6 3.2 0.00 0.00 0.00 7 1017.8
20260503232025 20 0 0.0 0.0 0.00 0.00 0.00 7 1017.9
20260503231025 20 76 1.6 1.6 0.00 0.00 0.00 7 1018.0
20260503230025 19 53 1.6 3.2 0.00 0.00 0.00 7 1017.8
20260503225025 19 49 4.8 4.8 0.00 0.00 0.00 8 1017.7
20260503224025 19 45 4.8 4.8 0.00 0.00 0.00 8 1017.4
20260503223024 19 44 3.2 3.2 0.00 0.00 0.00 8 1017.4
20260503222024 18 24 4.8 4.8 0.00 0.00 0.00 8 1017.3
20260503221024 18 23 1.6 1.6 0.00 0.00 0.00 7 1017.2
20260503220024 19 23 4.8 4.8 0.00 0.00 0.00 7 1017.2
20260503215024 19 0 0.0 0.0 0.00 0.00 0.00 7 1017.1
20260503214024 18 45 1.6 1.6 0.00 0.00 0.00 8 1017.1
20260503213024 18 0 0.0 0.0 0.00 0.00 0.00 8 1016.8
20260503212024 18 0 0.0 0.0 0.00 0.00 0.00 8 1016.8
20260503211024 17 0 0.0 0.0 0.00 0.00 0.00 8 1016.7
20260503210024 17 0 0.0 0.0 0.00 0.00 0.00 8 1016.7
20260503205024 17 0 0.0 0.0 0.00 0.00 0.00 8 1016.7
20260503204024 16 0 0.0 0.0 0.00 0.00 0.00 8 1016.5
20260503203024 16 0 0.0 0.0 0.00 0.00 0.00 8 1016.5
20260503202024 16 0 0.0 0.0 0.00 0.00 0.00 8 1016.4
20260503201024 17 0 0.0 0.0 0.00 0.00 0.00 8 1016.3
20260503200024 16 0 0.0 0.0 0.00 0.00 0.00 8 1016.3
20260503195024 16 0 0.0 0.0 0.00 0.00 0.00 8 1016.2
20260503194024 16 0 0.0 1.6 0.00 0.00 0.00 8 1016.1
20260503193024 16 0 0.0 3.2 0.00 0.00 0.00 8 1016.0
20260503192023 16 16 1.6 1.6 0.00 0.00 0.00 8 1015.9
20260503191023 16 0 0.0 0.0 0.00 0.00 0.00 8 1016.0
20260503190023 17 0 0.0 0.0 0.00 0.00 0.00 8 1016.0
20260503185023 16 0 0.0 0.0 0.00 0.00 0.00 8 1016.0
20260503184023 16 0 0.0 0.0 0.00 0.00 0.00 8 1016.0
20260503183023 17 16 1.6 3.2 0.00 0.00 0.00 8 1016.0
20260503182023 17 0 0.0 0.0 0.00 0.00 0.00 8 1015.9
20260503181023 17 0 0.0 0.0 0.00 0.00 0.00 8 1015.9
20260503180023 17 0 0.0 0.0 0.00 0.00 0.00 8 1016.0
20260503175023 17 0 0.0 0.0 0.00 0.00 0.00 8 1016.1